Tracking 27112 objects as of 27-Mar-2023
HD Live streaming from Space Station
objects crossing your sky now

ARIANE 5 DEB (SYLDA)

Track ARIANE 5 DEB (SYLDA) now!
10-day predictions


NORAD ID: 40877
Int'l Code: 2015-039D
Perigee: 293.2 km
Apogee: 22,628.7 km
Inclination: 4.9 °
Period: 395.0 minutes
Semi major axis: 17831 km
RCS: Unknown
Launch date: August 20, 2015
Source: France (FR)
Launch site: FRENCH GUIANA (FRGUI)

Note: This is SATELLITE DEBRIS
Your satellite tracking list
Your tracking list is empty




NASA's NSSDC Master Catalog

Two Line Element Set (TLE):
1 40877U 15039D   23086.24508084  .00034761  00000-0  88867-2 0  9994
2 40877   4.8998 280.6218 6262763 164.8893 229.1942  3.64588836 83612
Source of the keplerian elements: AFSPC